OM1PU-6 Weather Reports


time (UTC)temp
C
wind
direction
speed
KPH
gust
KPH
rain 1hr
cm
rain 24hr
cm
rain mn
cm
humidity
%
barometer
mb
20260504081816 21 302 3.2 12.9 0.00 0.00 0.00 44 1028.8
20260504080317 20 238 6.4 33.8 0.00 0.00 0.00 45 1028.8
20260504070316 18 99 6.4 33.8 0.00 0.00 0.00 49 1028.8
20260504050316 10 284 0.0 0.0 0.00 0.00 0.00 78 1028.8
20260504044816 9 359 0.0 0.0 0.00 0.00 0.00 80 1028.5
20260504043316 9 273 0.0 0.0 0.00 0.00 0.00 78 1028.3
20260504041816 8 238 0.0 0.0 0.00 0.00 0.00 78 1028.4
20260504040315 7 268 0.0 0.0 0.00 0.00 0.00 81 1028.5
20260504034817 7 266 0.0 0.0 0.00 0.00 0.00 82 1028.3
20260504033315 7 273 0.0 0.0 0.00 0.00 0.00 82 1028.5
20260504031816 7 267 0.0 0.0 0.00 0.00 0.00 81 1028.8
20260504030317 7 282 0.0 0.0 0.00 0.00 0.00 80 1028.5
20260504024815 7 277 0.0 0.0 0.00 0.00 0.00 81 1028.8
20260504023316 7 280 0.0 0.0 0.00 0.00 0.00 79 1028.7
20260504021816 7 280 0.0 0.0 0.00 0.00 0.00 78 1028.8
20260504020316 7 284 0.0 0.0 0.00 0.00 0.00 79 1028.8
20260504014816 7 275 0.0 0.0 0.00 0.00 0.00 78 1028.5
20260504013316 8 277 0.0 0.0 0.00 0.00 0.00 77 1028.5
20260504011816 8 286 0.0 0.0 0.00 0.00 0.00 76 1028.2
20260504010316 8 276 0.0 0.0 0.00 0.00 0.00 76 1028.3
20260504004816 9 273 0.0 0.0 0.00 0.00 0.00 72 1028.3
20260504003316 10 305 0.0 0.0 0.00 0.00 0.00 69 1028.3
20260504001816 10 274 0.0 0.0 0.00 0.00 0.00 68 1028.3
20260504000316 10 279 0.0 0.0 0.00 0.00 0.00 68 1028.3
20260503234816 11 272 0.0 0.0 0.00 0.00 0.00 65 1028.2
20260503233316 11 270 0.0 0.0 0.00 0.00 0.00 63 1028.4
20260503231816 12 267 0.0 0.0 0.00 0.00 0.00 62 1028.4
20260503230315 12 261 0.0 0.0 0.00 0.00 0.00 60 1028.5
20260503224815 12 258 0.0 0.0 0.00 0.00 0.00 58 1028.5
20260503223316 12 246 0.0 0.0 0.00 0.00 0.00 57 1028.4
20260503221815 13 251 0.0 6.4 0.00 0.00 0.00 56 1028.4
20260503220315 13 268 0.0 0.0 0.00 0.00 0.00 55 1028.3
20260503214816 13 237 1.6 6.4 0.00 0.00 0.00 54 1028.4
20260503213316 13 89 3.2 12.9 0.00 0.00 0.00 52 1028.5
20260503211816 14 207 3.2 12.9 0.00 0.00 0.00 52 1028.6
20260503210315 14 105 4.8 19.3 0.00 0.00 0.00 51 1028.3
20260503204816 15 235 0.0 6.4 0.00 0.00 0.00 50 1028.6
20260503203315 15 228 3.2 19.3 0.00 0.00 0.00 49 1028.4
20260503201816 15 243 1.6 6.4 0.00 0.00 0.00 48 1028.5
20260503200316 16 118 3.2 12.9 0.00 0.00 0.00 46 1028.7
20260503194816 16 281 0.0 6.4 0.00 0.00 0.00 46 1028.7
20260503193316 16 109 1.6 12.9 0.00 0.00 0.00 44 1028.6
20260503191816 17 249 1.6 12.9 0.00 0.00 0.00 44 1028.6
20260503190316 17 122 3.2 12.9 0.00 0.00 0.00 43 1028.6
20260503183315 18 117 1.6 12.9 0.00 0.00 0.00 42 1028.4
20260503181816 19 120 4.8 19.3 0.00 0.00 0.00 42 1028.3
20260503180316 20 223 3.2 19.3 0.00 0.00 0.00 41 1027.9
20260503174816 20 150 3.2 12.9 0.00 0.00 0.00 40 1028.0
20260503173315 21 224 3.2 19.3 0.00 0.00 0.00 39 1028.1
20260503171816 22 99 1.6 12.9 0.00 0.00 0.00 38 1027.8
20260503170315 22 189 1.6 6.4 0.00 0.00 0.00 37 1028.1
20260503150315 25 184 3.2 19.3 0.00 0.00 0.00 33 1028.6
20260503130315 25 193 1.6 12.9 0.00 0.00 0.00 36 1029.7
20260503110316 23 196 4.8 46.7 0.00 0.00 0.00 37 1031.1